Mitchell, SD

7:45 AM CDT on July 16, 2019 (GMT -0500)
Mitchell Municipal

Weather History for KMHE - May, 2019

Change the Weather History Date:

Friday, May 24, 2019

  Actual Average Record
Temperature  
Mean Temperature 65 °F 62 °F  
Max Temperature 78 °F 73 °F 99 °F (1926)
Min Temperature 52 °F 51 °F 26 °F (1897)
Degree Days  
Heating Degree Days 0 5  
Month to date heating degree days 273 183  
Since 1 July heating degree days 7961 7183  
Cooling Degree Days 0 2  
Month to date cooling degree days 7 22  
Year to date cooling degree days 7 24  
Growing Degree Days 15 (Base 50)    
Moisture  
Dew Point 51 °F    
Average Humidity 63    
Maximum Humidity 96    
Minimum Humidity 30    
Precipitation  
Precipitation 0.43 in 0.10 in 2.00 in (1909)
Month to date precipitation 3.96 1.92  
Year to date precipitation 11.54 5.72  
Snow  
Snow 0.00 in - 0.00 in ()
Month to date snowfall 0.0  
Since 1 July snowfall 67.6  
Snow Depth 0.00 in    
Sea Level Pressure  
Sea Level Pressure 29.81 in    
Wind  
Wind Speed 10 mph (South)    
Max Wind Speed 21 mph    
Max Gust Speed 31 mph    
Visibility 8 miles    
Events Rain    
T = Trace of Precipitation, MM = Missing Value Source: NWS Daily Summary

Daily Weather History Graph

Daily Weather History Graph

Search for Another Location

Airport or City:

Astronomy

May. 24, 2019 Rise Set
Actual Time 5:58 AM CDT 9:00 PM CDT
Civil Twilight 5:24 AM CDT 9:34 PM CDT
Nautical Twilight 4:40 AM CDT 10:18 PM CDT
Astronomical Twilight 3:48 AM CDT 11:10 PM CDT
Moon 1:25 AM CDT (5/24) 11:01 AM CDT (5/24)
Length of Visible Light 16h 10m
Length of Day
15h 01m
Waning Gibbous, 68% of the Moon is Illuminated
May 24
Waning Gibbous
May 26
Last Quarter
Jun 3
New
Jun 10
First Quarter
Jun 17
Full

Hourly Weather History & Observations

Time (CDT) Temp. Dew Point Humidity Pressure Visibility Wind Dir Wind Speed Gust Speed Precip Events Conditions
12:48 AM 53.6 °F 48.2 °F 82% 29.99 in 10.0 mi ESE 8.1 mph - N/A   Overcast
12:53 AM 53.1 °F 48.9 °F 86% 29.99 in 10.0 mi ESE 8.1 mph - N/A   Overcast
1:27 AM 52.0 °F 50.0 °F 93% 30.00 in 3.0 mi SE 8.1 mph - 0.06 in Rain Rain
1:53 AM 52.0 °F 48.9 °F 89% 29.96 in 5.0 mi East 10.4 mph - 0.12 in Rain Light Rain
2:01 AM 52.0 °F 50.0 °F 93% 29.96 in 5.0 mi East 9.2 mph - 0.02 in Rain Light Rain
2:27 AM 52.0 °F 50.0 °F 93% 29.96 in 7.0 mi ESE 4.6 mph - 0.06 in Rain Light Rain
2:36 AM 52.0 °F 50.0 °F 93% 29.92 in 5.0 mi East 11.5 mph - 0.11 in Rain Heavy Rain
2:53 AM 52.0 °F 50.0 °F 93% 29.93 in 8.0 mi East 8.1 mph - 0.14 in Rain Light Rain
3:24 AM 52.0 °F 50.0 °F 93% 29.89 in 4.0 mi East 13.8 mph - 0.03 in Rain Rain
3:53 AM 52.0 °F 50.0 °F 93% 29.88 in 5.0 mi East 13.8 mph - 0.11 in Rain Light Rain
4:01 AM 52.0 °F 50.0 °F 93% 29.86 in 9.0 mi East 10.4 mph - 0.00 in Rain Light Rain
4:53 AM 52.0 °F 50.0 °F 93% 29.86 in 7.0 mi ESE 10.4 mph - 0.02 in Rain Light Rain
5:53 AM 53.1 °F 50.0 °F 89% 29.83 in 3.0 mi SE 8.1 mph - 0.01 in Rain Light Rain
6:53 AM 53.1 °F 51.1 °F 93% 29.83 in 4.0 mi SW 4.6 mph - 0.02 in Rain Light Rain
7:09 AM 53.1 °F 51.1 °F 93% 29.82 in 1.8 mi WSW 3.5 mph - 0.00 in   Overcast
7:48 AM 53.6 °F 51.8 °F 94% 29.82 in 1.2 mi SSW 4.6 mph - 0.01 in   Overcast
7:53 AM 53.1 °F 52.0 °F 96% 29.83 in 1.2 mi SSW 3.5 mph - 0.01 in   Overcast
8:25 AM 54.0 °F 52.0 °F 93% 29.80 in 3.0 mi South 6.9 mph - N/A   Overcast
8:53 AM 55.9 °F 53.1 °F 90% 29.80 in 10.0 mi SSW 6.9 mph - N/A   Overcast
9:11 AM 55.9 °F 53.1 °F 90% 29.79 in 10.0 mi SSW 10.4 mph - N/A   Overcast
9:53 AM 57.9 °F 53.1 °F 84% 29.80 in 10.0 mi SW 9.2 mph - N/A   Overcast
10:01 AM 57.9 °F 52.0 °F 81% 29.79 in 10.0 mi SW 8.1 mph - N/A   Overcast
10:53 AM 60.1 °F 53.1 °F 78% 29.78 in 10.0 mi SSW 12.7 mph - N/A   Mostly Cloudy
11:03 AM 61.0 °F 53.1 °F 75% 29.78 in 10.0 mi SSW 11.5 mph - N/A   Scattered Clouds
11:53 AM 64.0 °F 54.0 °F 70% 29.77 in 10.0 mi SSW 10.4 mph 23.0 mph N/A   Scattered Clouds
12:53 PM 68.0 °F 55.0 °F 63% 29.75 in 10.0 mi SSW 12.7 mph 20.7 mph N/A   Clear
1:53 PM 71.1 °F 54.0 °F 55% 29.73 in 10.0 mi SSW 17.3 mph 24.2 mph N/A   Clear
2:53 PM 73.9 °F 51.1 °F 45% 29.73 in 10.0 mi SW 15.0 mph 27.6 mph N/A   Clear
3:53 PM 75.0 °F 52.0 °F 44% 29.70 in 10.0 mi SSW 15.0 mph 27.6 mph N/A   Clear
4:53 PM 78.1 °F 46.9 °F 33% 29.68 in 10.0 mi SW 19.6 mph 31.1 mph N/A   Partly Cloudy
5:53 PM 78.1 °F 45.0 °F 31% 29.67 in 10.0 mi SW 16.1 mph 26.5 mph N/A   Clear
6:53 PM 77.0 °F 48.9 °F 37% 29.65 in 10.0 mi SW 10.4 mph 18.4 mph N/A   Clear
7:53 PM 75.0 °F 53.1 °F 46% 29.67 in 10.0 mi WSW 4.6 mph - N/A   Mostly Cloudy
8:53 PM 71.1 °F 51.1 °F 49% 29.68 in 10.0 mi West 4.6 mph - N/A   Partly Cloudy
9:53 PM 63.0 °F 54.0 °F 72% 29.70 in 10.0 mi NW 4.6 mph - N/A   Clear
10:53 PM 62.1 °F 52.0 °F 70% 29.75 in 10.0 mi NNW 10.4 mph - N/A   Scattered Clouds
11:53 PM 59.0 °F 48.0 °F 67% 29.78 in 10.0 mi NW 10.4 mph - N/A   Clear